カタログに戻る

SCOUT B-1 R/B

運用中LEO
NORAD 5438·ROCKET BODY·🇺🇸 United States

打ち上げ Aug 16, 1971 から Wallops Flight Facility

Loading…

次のパス (今後24時間)

TLE

最新Source: Space-Track

元期: Sep 14, 2026, 03:59 UTC

1 05438U 71071B   26257.16613236  .00000473  00000-0  12183-3 0  9998
2 05438  50.1447 179.7395 0097205 290.7518  68.3020 14.63780594892015

AllMySatでSCOUT B-1 R/Bをリアルタイム追跡

Download on the App Store